Wind_Speed
21 21 21 21 20 21 21 22 21 19 19 20 21 23 23 24 24 25 27 28 28 28 29 30 30 31 32 32 32 33 35 35 36 36 36 35 36 36 37 38 39 41 42 42
20 20 21 21 20 20 20 21 21 20 20 21 22 22 23 23 24 25 26 27 28 29 30 30 30 30 30 31 32 33 33 33 33 33 33 33 33 33 34 35 36 37 37 38
18 19 20 20 19 20 19 20 21 21 20 21 21 21 22 23 24 24 25 27 28 29 29 29 29 28 29 30 30 31 32 31 30 30 30 30 31 31 31 32 32 31 32 34
18 19 19 18 19 19 19 19 20 21 21 21 21 21 22 23 24 24 25 26 27 28 28 28 28 28 28 29 29 29 29 28 28 28 28 29 29 29 29 29 30 30 30 31
18 19 19 19 19 19 20 20 21 21 21 21 21 22 23 23 24 24 24 25 25 26 26 26 27 27 27 27 27 27 26 26 26 26 27 28 28 27 27 27 28 29 29 29
18 19 19 18 19 19 19 20 20 21 21 22 22 23 23 23 23 24 24 24 24 25 25 25 25 26 26 26 26 25 26 25 25 25 26 27 27 26 26 26 26 26 27 27
17 18 17 18 19 19 19 19 20 22 22 22 23 23 23 23 23 23 23 24 24 24 24 24 25 25 25 25 25 25 25 25 25 24 24 25 25 25 25 24 24 24 25 25
17 17 17 18 19 19 20 21 21 22 22 22 22 22 22 22 22 22 23 24 24 24 23 24 24 25 24 23 23 24 24 23 24 23 24 24 25 24 23 23 23 22 21 21
17 18 18 18 19 20 20 21 21 20 21 22 22 22 21 21 21 22 23 23 23 23 23 23 23 23 22 21 21 22 22 22 23 23 23 23 23 22 20 19 19 19 19 19
19 19 19 19 20 21 21 21 21 21 21 21 21 21 21 21 21 22 21 21 22 22 22 23 22 21 20 20 21 21 21 21 22 21 21 21 19 19 18 17 16 16 16 17
19 19 20 20 21 21 21 21 21 21 21 20 20 21 21 21 21 21 21 22 22 22 22 21 20 20 19 20 20 20 21 21 20 19 18 17 17 17 17 15 15 15 15 15
19 19 20 20 21 21 21 21 20 20 20 20 20 20 20 21 21 20 21 21 21 21 20 19 18 18 19 19 20 20 20 19 18 16 15 15 15 15 14 14 14 14 15 15
20 20 20 20 20 20 20 20 20 19 19 20 21 21 20 21 21 20 20 20 21 20 19 19 19 19 20 20 19 19 18 17 16 15 15 14 13 13 12 12 13 13 13 13
20 19 19 19 19 19 20 20 19 20 20 20 20 20 20 20 20 20 20 20 19 20 19 19 19 19 19 19 18 18 17 16 15 15 14 14 13 12 12 12 12 12 11 11
19 20 19 19 19 19 20 20 20 19 20 20 19 19 19 19 19 19 19 19 19 18 18 17 17 17 17 17 16 15 15 15 14 14 13 13 12 12 12 12 11 11 11 10
19 20 19 18 18 18 19 19 19 19 18 18 18 18 19 19 18 18 18 18 17 17 16 16 16 16 15 16 15 15 15 15 14 13 13 13 13 12 11 11 10 10 10 10
18 18 18 17 17 17 18 18 18 17 17 16 17 17 18 18 18 17 17 17 16 16 16 16 16 15 15 15 15 15 15 14 13 13 12 12 12 11 10 10 10 10 10 10
17 17 17 17 17 17 17 17 16 16 16 15 15 16 16 16 16 16 16 16 16 17 17 16 16 15 15 15 15 15 14 14 13 13 12 12 12 11 11 11 10 10 10 10
17 16 16 17 17 16 16 15 15 15 14 14 15 16 16 16 16 16 16 16 16 16 16 16 15 15 15 15 15 15 15 14 13 13 12 11 11 10 10 10 10 10 9 9
17 17 16 16 16 15 15 15 14 14 14 14 15 15 16 16 16 16 15 15 15 15 14 14 14 14 14 15 15 15 14 14 13 13 12 11 11 11 11 10 9 9 8 9
17 17 16 16 15 15 15 15 15 14 15 15 15 15 15 16 16 15 15 15 15 15 14 14 14 13 14 14 14 14 14 13 13 12 12 11 11 11 10 9 9 9 9 9
17 17 16 16 16 16 16 16 15 15 15 15 15 15 15 15 15 15 15 15 15 15 14 14 14 14 14 14 14 14 14 13 12 11 11 10 10 10 9 9 9 9 9 9
17 17 17 17 16 16 16 16 16 15 15 15 15 15 16 15 16 16 15 15 15 14 14 13 13 13 13 13 13 13 12 11 11 10 10 10 10 10 10 9 9 9 9 9
17 17 17 17 17 17 17 17 16 16 16 16 16 16 16 16 16 15 15 15 14 14 13 13 12 12 12 12 12 12 11 11 11 11 10 10 10 10 10 10 9 9 9 8
17 17 17 17 17 16 16 16 16 16 16 16 16 16 16 16 16 15 15 14 14 13 12 12 11 11 11 11 12 12 11 11 11 11 10 10 10 10 10 9 9 8 7 7
16 16 16 16 16 16 16 16 16 16 16 16 16 15 15 15 15 14 14 14 13 12 12 11 10 10 11 11 11 11 11 11 10 10 9 9 8 8 8 7 7 6 5 5
15 15 16 16 15 15 15 15 15 15 15 14 14 14 14 14 14 13 13 13 12 11 11 10 10 10 10 11 10 10 10 10 9 9 8 7 6 6 5 5 5 4 4 3
Wind_Direction
274 270 267 267 264 266 269 272 274 277 279 280 280 281 283 284 284 284 284 282 283 284 286 286 287 287 286 287 288 288 288 287 283 280 279 279 277 276 276 275 273 271 269 267
274 271 266 265 263 266 269 271 274 275 280 282 283 285 287 287 287 287 287 286 284 286 288 288 288 287 287 288 290 292 291 290 287 283 281 280 279 278 277 277 275 272 270 269
275 270 267 266 264 265 269 272 272 274 279 284 287 287 289 290 289 290 290 289 289 288 287 289 289 288 288 289 291 292 291 291 289 285 282 280 281 280 278 276 274 272 272 272
276 272 270 270 268 266 268 273 275 275 277 282 285 287 289 293 292 290 291 291 292 291 288 289 290 290 290 290 292 293 292 291 290 285 283 282 282 284 281 278 276 275 274 274
276 274 271 270 271 270 272 273 274 276 277 282 286 288 290 293 294 293 291 292 293 294 292 292 291 291 292 294 295 295 294 291 291 288 285 285 285 286 284 282 280 278 277 275
277 275 273 272 272 274 275 275 274 276 279 283 287 290 292 293 294 294 295 294 293 295 296 294 293 294 295 296 296 295 294 294 292 291 288 286 287 288 286 283 281 280 278 276
278 276 275 274 274 274 276 277 276 279 282 285 289 292 292 293 294 295 295 296 296 295 296 296 297 298 299 298 297 297 295 294 294 293 291 288 287 288 288 284 280 279 278 275
277 277 279 275 275 275 276 278 279 279 283 287 289 293 293 294 295 297 298 298 298 299 298 297 299 300 301 300 299 300 299 297 297 297 294 288 287 287 287 283 280 279 278 277
278 279 279 277 276 276 277 278 278 280 285 288 289 291 292 293 294 298 300 298 299 300 301 300 300 300 301 301 302 303 302 302 301 301 298 293 290 287 286 284 280 279 277 277
279 278 277 277 276 277 277 277 279 282 286 289 289 290 291 292 294 298 299 300 301 302 303 303 301 300 301 302 303 304 304 303 304 303 300 295 291 290 289 289 284 282 282 281
279 278 277 276 276 278 278 278 281 282 285 289 290 290 291 294 295 297 298 301 301 301 302 303 302 301 302 303 303 304 306 307 308 307 304 298 291 289 287 287 287 287 287 286
280 278 278 277 276 278 278 279 282 283 284 286 290 292 292 294 295 296 296 299 301 301 302 303 304 303 305 306 305 304 307 310 312 310 307 303 294 289 289 287 287 287 287 287
281 280 280 279 276 276 280 282 282 284 285 286 289 291 292 293 294 295 295 298 300 301 301 303 305 306 307 308 309 310 310 311 312 309 307 305 301 293 288 288 290 292 292 292
281 280 281 279 277 277 280 283 283 283 285 286 288 290 291 292 295 297 297 298 299 302 303 304 306 307 309 310 311 310 311 311 311 308 305 303 301 297 295 294 292 292 292 294
283 281 280 278 278 278 279 282 284 284 286 286 287 291 293 294 296 297 299 299 300 302 303 304 307 310 314 315 315 314 313 313 313 308 305 304 302 298 296 295 293 293 294 294
286 283 280 280 280 281 282 282 284 285 285 286 288 292 294 295 297 296 296 298 299 301 302 304 308 312 314 315 315 315 314 314 314 311 309 308 305 300 297 294 291 291 290 290
290 286 282 281 281 283 285 285 284 286 287 287 289 291 294 296 297 296 296 297 298 300 301 303 306 308 310 311 312 313 313 313 314 312 310 307 304 298 294 292 290 289 288 288
291 290 284 281 282 284 285 287 287 288 288 288 290 292 295 296 296 295 296 296 296 298 299 301 303 304 306 310 314 316 316 314 312 311 309 306 304 299 294 292 291 289 287 285
291 291 288 283 281 282 285 287 287 287 288 289 290 293 294 296 297 296 296 295 295 296 297 298 298 299 301 307 311 312 313 311 308 307 308 308 307 305 301 297 295 289 283 280
289 289 288 285 281 280 281 285 287 289 289 290 292 293 294 297 298 297 297 297 296 298 299 299 298 298 300 304 307 310 311 310 307 306 305 304 304 304 301 297 294 288 280 276
288 286 285 284 281 279 279 283 286 288 290 291 292 293 294 296 297 297 297 297 298 299 300 299 299 300 303 305 306 308 309 308 305 304 302 301 302 301 298 293 289 286 281 278
283 282 282 281 280 277 278 280 282 285 287 290 292 292 293 295 296 296 295 295 297 298 300 299 299 301 303 305 306 306 306 306 304 301 299 299 300 299 298 295 292 288 282 278
280 279 279 280 279 276 276 278 279 282 286 290 292 292 293 294 296 296 294 294 295 296 297 297 298 300 302 305 307 306 306 306 304 300 298 298 298 300 299 296 292 286 280 279
279 279 280 280 282 280 277 276 278 281 285 289 292 292 293 295 296 295 293 293 295 295 295 296 297 298 301 304 305 306 306 307 305 300 297 295 295 296 295 292 290 285 282 281
279 279 281 282 283 283 280 277 279 281 285 289 291 293 294 295 295 295 293 292 293 292 291 292 296 298 301 303 304 304 305 307 308 306 301 297 296 293 290 288 287 287 286 282
279 280 281 282 282 283 280 278 279 281 284 287 291 294 295 295 294 294 293 292 291 290 289 289 293 298 301 302 302 302 304 308 310 309 305 301 300 300 296 293 291 288 285 281
280 281 282 283 283 283 281 279 279 282 284 286 289 290 292 293 294 295 293 291 288 286 286 289 294 298 300 301 301 301 306 309 308 306 302 298 299 302 302 297 292 288 283 279
Height
5585 5585 5585 5585 5586 5586 5586 5585 5586 5587 5586 5586 5584 5584 5583 5582 5581 5579 5578 5577 5575 5573 5571 5569 5567 5564 5561 5558 5556 5553 5550 5547 5545 5542 5541 5540 5538 5538 5537 5536 5535 5534 5535 5536
5580 5580 5579 5579 5580 5581 5581 5581 5581 5581 5582 5581 5579 5578 5577 5576 5574 5573 5571 5569 5568 5566 5564 5561 5559 5555 5553 5550 5547 5544 5540 5537 5535 5533 5531 5530 5529 5528 5527 5526 5525 5524 5525 5526
5575 5575 5574 5576 5577 5576 5576 5576 5576 5576 5577 5575 5574 5573 5572 5570 5568 5566 5565 5563 5560 5558 5556 5553 5550 5547 5545 5542 5539 5536 5532 5529 5526 5524 5523 5521 5520 5519 5518 5517 5516 5516 5516 5517
5571 5571 5571 5574 5572 5572 5572 5572 5572 5571 5571 5570 5569 5568 5566 5564 5562 5560 5558 5556 5554 5551 5549 5546 5543 5540 5537 5534 5531 5528 5525 5522 5519 5517 5515 5514 5512 5511 5510 5509 5508 5508 5508 5508
5567 5566 5566 5568 5567 5567 5567 5567 5567 5566 5566 5565 5564 5563 5561 5558 5556 5554 5552 5550 5547 5544 5541 5539 5536 5533 5530 5527 5524 5521 5518 5515 5512 5510 5509 5507 5506 5505 5503 5502 5501 5501 5501 5501
5562 5562 5562 5564 5563 5562 5563 5562 5562 5561 5560 5560 5558 5557 5556 5553 5551 5548 5546 5543 5541 5538 5535 5532 5530 5527 5524 5521 5518 5514 5512 5509 5507 5504 5503 5501 5500 5499 5497 5496 5495 5494 5494 5494
5558 5557 5558 5559 5558 5558 5559 5558 5557 5555 5555 5554 5553 5551 5550 5547 5545 5543 5540 5537 5534 5531 5529 5526 5523 5520 5517 5514 5511 5508 5506 5503 5501 5499 5497 5495 5494 5492 5491 5490 5489 5489 5489 5489
5554 5554 5556 5554 5553 5553 5553 5552 5551 5550 5549 5548 5547 5545 5543 5541 5539 5537 5534 5531 5528 5525 5522 5520 5517 5514 5511 5508 5506 5503 5500 5498 5496 5493 5491 5490 5488 5487 5485 5484 5483 5483 5483 5483
5551 5552 5550 5549 5548 5548 5547 5547 5546 5545 5544 5543 5541 5540 5538 5536 5534 5531 5528 5525 5522 5519 5516 5514 5511 5508 5505 5503 5500 5498 5495 5493 5491 5488 5486 5484 5483 5481 5480 5479 5478 5478 5478 5478
5546 5546 5545 5544 5543 5542 5542 5541 5540 5540 5539 5537 5536 5534 5532 5530 5528 5526 5523 5520 5517 5514 5511 5508 5505 5503 5500 5498 5496 5493 5491 5488 5486 5484 5482 5479 5478 5477 5476 5475 5475 5475 5474 5474
5541 5541 5540 5539 5538 5537 5536 5536 5535 5534 5533 5532 5530 5529 5527 5525 5523 5521 5518 5515 5512 5509 5506 5503 5501 5498 5496 5494 5492 5489 5486 5484 5481 5479 5477 5475 5474 5473 5473 5472 5471 5471 5471 5470
5536 5535 5534 5534 5533 5532 5531 5531 5530 5529 5528 5527 5525 5523 5521 5520 5518 5516 5513 5511 5508 5505 5502 5499 5497 5494 5492 5490 5487 5485 5482 5480 5477 5475 5474 5472 5471 5470 5469 5468 5467 5467 5467 5466
5531 5530 5529 5528 5527 5527 5526 5525 5524 5523 5522 5521 5520 5518 5516 5514 5513 5510 5508 5506 5503 5501 5498 5496 5493 5491 5489 5486 5484 5481 5479 5477 5475 5473 5471 5470 5468 5468 5467 5466 5465 5464 5463 5463
5525 5524 5524 5523 5522 5522 5521 5520 5519 5518 5517 5515 5514 5513 5511 5509 5507 5505 5503 5501 5499 5496 5494 5492 5490 5487 5485 5482 5480 5478 5476 5474 5472 5470 5469 5467 5466 5465 5464 5463 5462 5461 5460 5460
5520 5519 5519 5518 5517 5516 5515 5515 5514 5513 5511 5510 5509 5507 5506 5504 5502 5500 5498 5496 5494 5492 5490 5488 5486 5484 5481 5479 5477 5475 5473 5471 5469 5467 5466 5465 5463 5462 5461 5460 5459 5458 5457 5457
5516 5514 5513 5513 5512 5511 5510 5509 5508 5507 5506 5505 5504 5502 5501 5499 5497 5495 5494 5492 5490 5489 5487 5485 5483 5481 5479 5477 5475 5473 5471 5469 5467 5465 5463 5462 5460 5459 5458 5457 5456 5455 5455 5454
5511 5510 5509 5508 5507 5506 5505 5504 5503 5502 5501 5500 5499 5497 5496 5494 5493 5491 5490 5488 5487 5485 5483 5481 5480 5478 5476 5474 5472 5470 5468 5466 5464 5462 5460 5459 5457 5456 5455 5454 5453 5453 5452 5452
5506 5505 5504 5503 5502 5502 5501 5499 5498 5497 5496 5495 5494 5493 5491 5490 5489 5487 5486 5484 5483 5481 5479 5478 5476 5474 5473 5471 5469 5467 5465 5463 5461 5460 5458 5456 5455 5453 5452 5451 5451 5450 5450 5449
5501 5500 5499 5498 5497 5497 5496 5495 5494 5493 5492 5490 5490 5489 5487 5486 5484 5483 5482 5480 5479 5477 5476 5474 5472 5471 5469 5468 5466 5464 5462 5460 5458 5457 5455 5454 5452 5451 5450 5449 5448 5447 5447 5447
5496 5495 5494 5493 5493 5492 5491 5490 5489 5488 5487 5486 5485 5484 5483 5482 5480 5479 5477 5476 5474 5473 5471 5470 5468 5467 5466 5464 5463 5461 5459 5457 5455 5454 5452 5451 5450 5448 5447 5446 5445 5445 5444 5444
5491 5490 5489 5489 5488 5488 5487 5486 5485 5484 5483 5482 5481 5480 5479 5478 5476 5475 5473 5472 5471 5469 5467 5466 5465 5463 5462 5461 5459 5457 5456 5454 5452 5451 5449 5448 5447 5445 5444 5443 5443 5442 5442 5441
5486 5486 5485 5484 5484 5483 5482 5482 5481 5480 5479 5478 5477 5476 5475 5474 5472 5471 5469 5468 5467 5465 5463 5462 5461 5459 5458 5457 5455 5454 5452 5450 5449 5447 5446 5445 5444 5443 5442 5441 5440 5439 5439 5439
5482 5481 5481 5480 5479 5479 5478 5477 5476 5475 5474 5473 5473 5472 5471 5469 5468 5467 5465 5464 5462 5461 5459 5458 5457 5455 5454 5453 5451 5450 5448 5447 5446 5444 5443 5442 5441 5440 5439 5438 5437 5437 5436 5436
5477 5476 5476 5475 5475 5474 5473 5473 5472 5471 5470 5469 5468 5467 5466 5465 5464 5462 5461 5459 5458 5457 5456 5454 5453 5452 5450 5449 5448 5447 5445 5444 5443 5441 5440 5439 5438 5437 5436 5435 5434 5434 5434 5433
5472 5472 5471 5471 5470 5469 5469 5468 5467 5467 5466 5465 5464 5463 5462 5460 5459 5458 5456 5455 5454 5453 5452 5450 5449 5448 5447 5446 5445 5443 5442 5441 5440 5438 5437 5436 5435 5434 5433 5432 5432 5431 5431 5431
5467 5467 5467 5466 5465 5465 5464 5463 5463 5462 5462 5461 5460 5458 5457 5456 5455 5453 5452 5451 5450 5449 5448 5447 5446 5445 5444 5443 5441 5440 5439 5438 5437 5435 5434 5433 5432 5431 5430 5430 5430 5430 5429 5429
5463 5463 5462 5461 5461 5460 5459 5459 5458 5458 5457 5456 5455 5454 5453 5452 5451 5450 5449 5448 5447 5446 5445 5444 5443 5442 5441 5440 5439 5438 5436 5435 5434 5433 5432 5431 5431 5430 5429 5429 5429 5429 5429 5429